Regional Weather Roundup
Issued by NWS

Home | Current Version | Previous Version | Text Only | Print | Product List | Glossary On
Versions: 1 2 3 4 5 6 7 8 9 10 11 12 13 14 15 16 17 18 19 20 21 22 23 24 25 26 27 28 29 30 31 32 33 34 35 36 37 38 39 40 41 42 43 44 45 46 47 48 49 50
000
ASHW40 PHFO 241343
RWRHI

WEATHER ROUNDUP FOR HAWAII
NATIONAL WEATHER SERVICE HONOLULU HI
300 AM HST WED MAY 24 2017

THIS IS AN AUTOMATED REPORT THAT HAS NOT BEEN QUALITY CONTROLLED.

NOTE..."FAIR" INDICATES FEW OR NO CLOUDS BELOW 12,000 FEET WITH NO
SIGNIFICANT WEATHER AND/OR OBSTRUCTIONS TO VISIBILITY.

* - THESE SITES REPORT LIMITED FIELDS

HIZ001>004-241400-
KAUAI-NIIHAU-

CITY           SKY/WX    TMP DP  RH WIND       PRES   REMARKS
LIHUE APT      PTCLDY    76  67  73 NE16      30.06F
PORT ALLEN*      N/A     73 N/A N/A NE9         N/A
POIPU*           N/A     75 N/A N/A NE7G15      N/A
PRINCEVILLE*     N/A     72 N/A N/A SE5         N/A
KOKOLE POINT*  NOT AVBL
MOLOAA DAIRY*    N/A     73  68  83 E2G12       N/A
WAIMEA HTS*      N/A     72  61  68 N2          N/A
PUU OPAE*      NOT AVBL
PUU LUA*       NOT AVBL
MAKAHA RIDGE*    N/A     66  57  72 SW1         N/A
$$

HIZ005>011-241400-
OAHU-

CITY           SKY/WX    TMP DP  RH WIND       PRES   REMARKS
HONOLULU       MOCLDY    72  69  90 N7        30.03F
KALAELOA       PTCLDY    73  68  84 NE5       30.05S
KANEOHE MCB    NOT AVBL
WHEELER FIELD  LGT RAIN  70  68  94 CALM      30.03F
BELLOWS*         N/A    N/A N/A N/A NE20        N/A
KAHUKU*          N/A    N/A N/A N/A E10G16      N/A
WHEELER*         N/A    N/A N/A N/A E2          N/A
WAIANAE HARBOR   N/A    N/A N/A N/A E7G13       N/A
DILLINGHAM*      N/A     72  68  88 SW3G9       N/A
KAHUKU TRN*      N/A     70  66  88 W7G23       N/A
KAWAILOA*        N/A     70  66  88 E10G24      N/A
KII*             N/A     75  70  83 E18G25      N/A
MAKUA RANGE*     N/A     75  68  78 SW6         N/A
OAHU FOREST NW   N/A     66  63  88 E17G31      N/A
SCHOFIELD BRK*   N/A     68  66  94 CALM        N/A
SCHOFIELD S*   NOT AVBL
WAIANAE VLY*     N/A     82  77  83 E3G13       N/A  HX  91
KUAOKALA*        N/A     70  66  88 NE7G18      N/A
HONOULIUULI*   NOT AVBL
MOKUOLOE IS*   NOT AVBL
PALEHUA*         N/A     64  64 100 NE8G20      N/A
WAIAWA PHB*    NOT AVBL
$$

HIZ012>013-241400-
MOLOKAI-

CITY           SKY/WX    TMP DP  RH WIND       PRES   REMARKS
MOLOKAI AIRPT  CLEAR     72  63  73 NE8       30.03F
KALAUPAPA      NOT AVBL
MAKAPULAPAI*     N/A     73  64  73 E18G25      N/A
MOLOKAI 1*       N/A     61  57  88 SE2G16      N/A
PUU ALII*        N/A     56  56 100 NE3G13      N/A
$$

HIZ016-241400-
KAHOOLAWE-

CITY           SKY/WX    TMP DP  RH WIND       PRES   REMARKS
KAHOOLAWE*     NOT AVBL
HAKIOAWA*        N/A     68  64  87 MISG      30.43S
HONOKANAIA*      N/A     74  63  68 VRB8G21   29.96F
KANELOA*         N/A     72  63  73 E13G26    30.09S
KEALIALALO*    NOT AVBL
LUA MAKIKA*    NOT AVBL
$$

HIZ014>015-241400-
LANAI-

CITY           SKY/WX    TMP DP  RH WIND       PRES   REMARKS
LANAI CITY     FAIR      67  62  84 NE10      30.06F
LANAI 1*       NOT AVBL
$$

HIZ017>028-241400-
MAUI-

CITY           SKY/WX    TMP DP  RH WIND       PRES   REMARKS
KAHULUI        CLEAR     73  64  73 NE10      30.02F
KAPALUA-W MAUI NOT AVBL
HANA AIRPORT   CLOUDY    73  68  83 NE8       30.07S
HANA*            N/A     70 N/A N/A S3          N/A
HALEAKALA SUMM   N/A     43  -2  15 SE5G33      N/A
MAALAEA BAY*     N/A     73 N/A N/A N18G30      N/A
HALEAKALA*     NOT AVBL
KAUPO GAP*     NOT AVBL
KULA 1*          N/A     46  37  71 SE6         N/A
$$

HIZ023>026-241400-
BIG ISLAND OF HAWAII COAST AND LOWER SLOPES-

CITY           SKY/WX    TMP DP  RH WIND       PRES   REMARKS
KAILUA KONA    CLEAR     74  63  68 SE9       29.96F
HILO           CLOUDY    70  66  88 SW5       30.02F
HONOKAA*         N/A     66 N/A N/A VRB1        N/A
KAWAIHAE MWT*    N/A     77 N/A N/A NE18G28     N/A
KAWAIHAE*        N/A     79 N/A N/A E10       29.96S
SOUTH POINT*     N/A     66 N/A N/A NW7         N/A
UPOLU AIRPORT* NOT AVBL
KAMUELA*       NOT AVBL
HAKALAU*       NOT AVBL
KALOKO-HONOKO* NOT AVBL
PALI 2*          N/A     63  54  72 S13G18      N/A
KEALAKOMO*       N/A     73  64  73 NE12G18     N/A
KAUPULEHU*       N/A     66  59  77 SE6         N/A
KAPAPALA*        N/A     57  53  88 N3G9        N/A
LOWER KAHUKU*    N/A     54  52  94 N2          N/A
PUHE CS*         N/A     75  57  53 NE9G22      N/A
PUHO CS*         N/A     73  60  63 E2          N/A
PTA KEAMUKU*     N/A     57  52  82 CALM        N/A
WAIKOLOA*        N/A     66  54  63 SE9G17      N/A
$$

HIZ027>028-241400-
BIG ISLAND OF HAWAII INTERIOR AND SUMMMITS-

CITY           SKY/WX    TMP DP  RH WIND       PRES   REMARKS
BRADSHAW FIELD CLOUDY    44  36  74 CALM      30.27F
MK VISITOR CEN   N/A     52  -4  10 NE8         N/A
MAUNA KEA*       N/A     36  -6  17 NE7         N/A  WCI  30
MAUNA LOA*       N/A     45  -9  10 MISG        N/A
MAUNA LOA 1*   NOT AVBL
PTA KIPUKA*      N/A     70  68  94 SW1G8       N/A
PTA RANGE 17*    N/A     55  41  58 SE9         N/A
PTA WEST*        N/A     72  66  83 S7          N/A
NENE CABIN*      N/A     45  36  70 NE5         N/A
AHUMOA*          N/A     45  37  76 NE6         N/A
PTA PORTABLE*  NOT AVBL
PUU MALI*        N/A     48  32  53 SW6G12      N/A
$$

HIC003-241400-
NORTHWEST ISLANDS-

CITY           SKY/WX    TMP DP  RH WIND       PRES   REMARKS
MIDWAY ISLAND  CLOUDY    70  63  78 E18       30.29F
MIDWAY NOS*      N/A     72 N/A N/A MISG      30.27F
FRENCH FRIGATE NOT AVBL
$$

PHZ110>124-180-241400-
BUOY REPORTS

STATION/POSITION TIME  TEMP    WIND        PRES    WAVE   SWELL
                       AIR SEA DIR/SP/G            HT/PER HT/DIR
                 (UTC) (F)     (DEG/KT/KT) (MB)    (FT/S) (FT/D)
BUOY 51001       1320   75 77   70/ 19/ 23 1019.4
BUOY 51101       1250   75 77   60/ 19/ 23 1019.7F  10/ 8   5/ 30
BUOY 51100       NOT AVBL
BUOY 51002       1320   77 78   70/ 16/ 17 1013.8
BUOY 51003       1250   77 79   40/ 12/ 14 1015.2F   8/ 8   8/ 70
BUOY 51004       1250      78   50/ 14/ 16 1014.1F   7/ 7   7/ 80
BARBERS PT BUOY  NOT AVBL
WAIMEA BAY BUOY  1302      78                N/A     7/ 9   2/330
KAILUA BAY BUOY  1304      78                N/A     9/ 8   2/ 10
LANAI BUOY       NOT AVBL
BARBERS PT 2     NOT AVBL
PAUWELA MAUI     1309      78                N/A     8/ 9   3/340
HILO             1212      78                N/A     7/11   3/340
KANEOHE BAY BUOY 1325      79                N/A     7/ 8   2/340
HANALEI KAUAI    1322      79                N/A     8/ 9   2/340
KAHULUI HARBOR   1306   75 79   40/  8/ 10 1016.9
HONOLULU HARBOR  1306   75 79   50/  4/ 10 1017.6
KILO NALU        NOT AVBL
HILO HARBOR      1306   71 78  180/  3/  5 1016.2
MOKUOLOE         1236   74 80   90/ 10/ 13 1017.2F
NAWILIWILI       1306   76 81   50/ 10/ 14 1017.4
WHOTS BUOY       NOT AVBL
BUOY 51028       NOT AVBL
$$

......................KEY........................................
  SKY/WX - SKY CONDITIONS/PRESENT WEATHER
  TMP    - TEMPERATURE IN FAHRENHEIT
  DWPT   - DEWPOINT IN FAHRENHEIT
  RH     - RELATIVE HUMIDITY IN PERCENT
  WIND   - DIRECTION AND SPEED /MPH FOR ISLANDS...KTS FOR BUOYS/
  PRES   - MEAN SEA LEVEL PRESSURE IN INCHES OF HG
  VSB    - VISIBILITY IN MILES
  HX     - HEAT INDEX
  WCI    - WIND CHILL INDEX
  VRB    - VARIABLE WIND DIRECTION
  N/A    - NOT AVAILABLE



USA.gov is the U.S. government's official web portal to all federal, state and local government web resources and services.